Nur fliegen ist schöner ....

Willkommen beim Flugservice Bautzen GmbH

Wir sind eine nach europäischen Richtlinien zugelassene Flugschule und lizenziertes Luftfahrtunternehmen. Bei uns können sie nicht nur Rundflüge über die Oberlausitz oder Sachsen buchen, sondern in unserer Flugschule selber das Fliegen erlernen. Erfahrene Fluglehrer stehen Ihnen dabei zur Seite.

Wir bieten Ihnen außerdem spezielle Flüge zur Vermessung oder Fotoflüge für Luftbildaufnahmen an. In Zusammenarbeit mit dem Fallschirmsportclub Dresden und dem Cottbuser Fallschirmsportclub setzen wir am Flugplatz Bautzen und Neuhausen Fallschirmspringer ab.
Schauen Sie sich in Ruhe bei uns um und wenn Sie Fragen haben oder weitere Informationen benötigen, scheuen Sie sich nicht Kontakt mit uns aufzunehmen.

Gutscheine für Rundflüge und Tandemsprünge können Sie ganz leicht auch online in unserem Shop erwerben.

Terminkalender

Letzter Monat Juli 2020 Nächster Monat
Mo Di Mi Do Fr Sa So
week 27 1 2 3 4 5
week 28 6 7 8 9 10 11 12
week 29 13 14 15 16 17 18 19
week 30 20 21 22 23 24 25 26
week 31 27 28 29 30 31

Flugwetterinfo

[Quelle: ADDS]
METAR
EDDC 130650Z VRB02KT CAVOK 17/06 Q1026 NOSIG =
EDDC 130500Z 1306/1406 01004KT CAVOK BECMG 1320/1322 16006KT
TAF
EDDC 130500Z 1306/1406 01004KT CAVOK BECMG 1320/1322 16006KT =
SR / SS: 03:02 / 19:13 UTC (EDAB Flugplatz Bautzen 2020-07-13)

Öffnungszeiten

des Flugplatzes Bautzen erfahren Sie hier:

flugplatz bautzen logo
Flugservice Bautzen GmbH, Kornmarkt 34, 02625 Bautzen  Telefon: +49 (3591) 211105, Telefax: +49 (3591) 274512, E-Mail:  flugservice(at)fsbautzen.de